Pagrindinis puslapis
METAR-TAF:

METAR-TAF

Oro uostai :

Avenger Field

Sweetwater, Teksasas, Jungtinės Amerikos Valstijos

platuma: 32-28-02N, ilguma: 100-27-59W, Aukštis: 725 m

Dabartinis oras

Ataskaita buvo paskelbta 21 minutes, ne 11:35 UTC
Vėjas 8 kt iš Vakarų
Temperatūra 11°C
Drėgmė 35%
Slėgis 1017 hPa
Matomumas: 16.1 km
Giedras dangus

METAR: KSWW 281135Z AUTO 28008KT 10SM CLR 11/M04 A3003 RMK AO2 T01121041

Laikas: 06:56 (11:56 UTC)


TAF: trūkstamas

Orai ataskaitas ir orų prognozės (METAR, TAF).

turimą stotys yra geltonos ir raudonos taškus žemėlapyje.

Perkelti pele per norėdami pamatyti stoties vardą.

Tada spustelėkite, norėdami matyti oro stebėjimo ir prognozės.

Norėdami pakeisti žemėlapį: spustelėkite ant žalios mygtukų su juodo kryžiaus žemyn,; žalią mygtuką su brūkšneliu, jei norite nutolinti; arba žalių rodyklių gretimoms žemėlapius.


METAR-TAF: